Date String (YYYY-MM-DD hh:mm:ss) UTC,Instrument flags,Ambient pressure (hPa),Sample flow (lpm),Bypass flow (lpm),Sample temperature (°C),Ambient temperature (°C),ASC tube jacket temperature (°C),LED temperature (°C),Box temperature (°C),Sample RH (%),Span deviation,Mass concentration (μg/m³),Mass concentration (μg/m³),Mass concentration (μg/m³)
DateTimeUTC,F1_M11,P_M11,Q1_M11,Q2_M11,T1_M11,T2_M11,T3_M11,T4_M11,T5_M11,U1_M11,ZSPAN_M11,X0_M11,X2_M11,X1_M11
2022-10-28 12:00:00,,0831.7,5.00,0.00,22.1,20.6,00.0,31.0,23.9,12.2,0000.0,0002.11,0001.63,0001.51
2022-10-28 12:01:00,,0831.7,5.00,0.00,22.1,20.5,00.0,31.0,23.9,12.3,0000.0,0002.14,0001.65,0001.51
2022-10-28 12:02:00,,0831.7,5.00,0.00,22.1,20.5,00.0,31.0,23.9,12.3,0000.0,0002.18,0001.67,0001.51
2022-10-28 12:03:00,,0831.7,5.00,0.00,22.1,20.5,00.0,31.0,23.8,12.2,0000.0,0002.20,0001.68,0001.51
2022-10-28 12:04:00,,0831.7,5.00,0.00,22.1,20.5,00.0,31.0,23.8,12.1,0000.0,0002.19,0001.67,0001.51
2022-10-28 12:05:00,,0831.7,4.99,0.00,22.1,21.2,00.0,31.0,24.0,12.1,0000.0,0002.15,0001.65,0001.49
2022-10-28 12:06:00,,0831.7,5.00,0.00,22.2,22.0,00.0,31.0,24.3,11.9,0000.0,0002.15,0001.65,0001.49
2022-10-28 12:07:00,,0831.7,5.01,0.00,22.3,22.0,00.0,31.0,24.4,11.8,0000.0,0002.08,0001.61,0001.47
2022-10-28 12:08:00,,0831.8,4.99,0.00,22.3,21.8,00.0,31.0,24.3,11.7,0000.0,0002.06,0001.60,0001.46
2022-10-28 12:09:00,,0831.8,5.01,0.00,22.3,21.6,00.0,31.1,24.3,11.7,0000.0,0002.04,0001.60,0001.47
2022-10-28 12:10:00,,0831.8,4.98,0.00,22.3,21.4,00.0,31.1,24.2,11.7,0000.0,0002.04,0001.59,0001.46
2022-10-28 12:11:00,,0831.9,5.00,0.00,22.3,21.2,00.0,31.1,24.2,11.7,0000.0,0001.93,0001.59,0001.46
2022-10-28 12:12:00,,0832.0,5.01,0.00,22.3,21.1,00.0,31.1,24.2,11.7,0000.0,0003.00,0001.57,0001.45
2022-10-28 12:13:00,,0832.0,5.00,0.00,22.3,21.0,00.0,31.1,24.2,11.7,0000.0,0003.03,0001.57,0001.45
2022-10-28 12:14:00,,0832.0,5.00,0.00,22.3,21.0,00.0,31.1,24.1,11.6,0000.0,0003.05,0001.56,0001.45
2022-10-28 12:15:00,,0831.9,5.00,0.00,22.3,20.9,00.0,31.1,24.1,11.5,0000.0,0003.14,0001.59,0001.47
2022-10-28 12:16:00,,0831.9,5.00,0.00,22.3,20.9,00.0,31.1,24.1,11.6,0000.0,0003.26,0001.66,0001.50
2022-10-28 12:17:00,,0831.9,4.99,0.00,22.3,20.8,00.0,31.1,24.1,11.6,0000.0,0003.32,0001.66,0001.50
2022-10-28 12:18:00,,0832.0,5.02,0.00,22.3,20.8,00.0,31.1,24.1,11.6,0000.0,0003.59,0001.68,0001.52
2022-10-28 12:19:00,,0832.0,5.00,0.00,22.3,20.8,00.0,31.1,24.1,11.5,0000.0,0003.67,0001.71,0001.54
2022-10-28 12:20:00,,0831.9,4.98,0.00,22.2,20.8,00.0,31.1,24.0,11.5,0000.0,0003.71,0001.72,0001.54
2022-10-28 12:21:00,,0832.0,5.02,0.00,22.2,20.7,00.0,31.1,24.0,11.6,0000.0,0003.73,0001.73,0001.54
2022-10-28 12:22:00,,0832.0,5.00,0.00,22.2,20.7,00.0,31.1,23.9,11.4,0000.0,0003.77,0001.74,0001.54
2022-10-28 12:23:00,,0831.9,4.98,0.00,22.2,20.6,00.0,31.1,23.9,11.5,0000.0,0002.89,0001.78,0001.55
2022-10-28 12:24:00,,0831.9,5.01,0.00,22.2,20.6,00.0,31.0,24.0,11.7,0000.0,0002.71,0001.78,0001.55
2022-10-28 12:25:00,,0831.9,5.00,0.00,22.2,20.6,00.0,31.0,24.0,11.7,0000.0,0002.69,0001.79,0001.55
2022-10-28 12:26:00,,0832.0,4.99,0.00,22.2,20.6,00.0,31.0,24.0,11.6,0000.0,0002.70,0001.80,0001.55
2022-10-28 12:27:00,,0832.0,5.00,0.00,22.2,20.6,00.0,31.0,23.9,11.6,0000.0,0002.64,0001.76,0001.53
2022-10-28 12:28:00,,0832.0,5.00,0.00,22.1,20.6,00.0,31.0,23.9,11.6,0000.0,0002.56,0001.75,0001.53
2022-10-28 12:29:00,,0832.0,5.00,0.00,22.1,20.6,00.0,31.0,23.9,11.6,0000.0,0002.31,0001.74,0001.52
2022-10-28 12:30:00,,0832.0,5.01,0.00,22.1,20.5,00.0,31.0,23.8,11.6,0000.0,0002.46,0001.75,0001.51
2022-10-28 12:31:00,,0831.9,5.00,0.00,22.1,20.5,00.0,31.0,23.8,11.6,0000.0,0002.56,0001.77,0001.51
2022-10-28 12:32:00,,0831.9,5.00,0.00,22.1,20.5,00.0,31.0,23.9,11.6,0000.0,0002.55,0001.77,0001.51
2022-10-28 12:33:00,,0832.0,5.00,0.00,22.1,20.5,00.0,31.0,23.9,11.6,0000.0,0002.54,0001.76,0001.51
2022-10-28 12:34:00,,0831.9,5.00,0.00,22.1,20.6,00.0,31.0,23.9,11.9,0000.0,0002.70,0001.75,0001.52
2022-10-28 12:35:00,,0832.0,4.99,0.00,22.2,21.3,00.0,31.0,24.1,11.8,0000.0,0002.72,0001.76,0001.52
2022-10-28 12:36:00,,0832.1,4.99,0.00,22.3,22.0,00.0,31.0,24.3,11.7,0000.0,0002.69,0001.74,0001.53
2022-10-28 12:37:00,,0832.1,5.02,0.00,22.3,22.0,00.0,31.0,24.4,12.0,0000.0,0002.61,0001.71,0001.53
2022-10-28 12:38:00,,0832.1,4.98,0.00,22.4,21.7,00.0,31.1,24.4,11.8,0000.0,0002.57,0001.70,0001.53
2022-10-28 12:39:00,,0832.1,5.01,0.00,22.4,21.5,00.0,31.1,24.3,11.8,0000.0,0002.79,0001.74,0001.55
2022-10-28 12:40:00,,0832.1,5.01,0.00,22.4,21.3,00.0,31.1,24.3,11.8,0000.0,0002.87,0001.77,0001.55
2022-10-28 12:41:00,,0832.1,4.98,0.00,22.4,21.2,00.0,31.1,24.3,12.3,0000.0,0002.80,0001.80,0001.57
2022-10-28 12:42:00,,0832.1,5.01,0.00,22.3,21.1,00.0,31.1,24.2,11.6,0000.0,0002.71,0001.81,0001.59
2022-10-28 12:43:00,,0832.1,5.00,0.00,22.3,21.1,00.0,31.1,24.2,11.7,0000.0,0002.62,0001.80,0001.59
2022-10-28 12:44:00,,0832.1,5.00,0.00,22.3,21.0,00.0,31.1,24.2,11.9,0000.0,0002.62,0001.81,0001.61
2022-10-28 12:45:00,,0832.1,5.00,0.00,22.3,21.0,00.0,31.1,24.1,11.9,0000.0,0002.46,0001.82,0001.62
2022-10-28 12:46:00,,0832.1,5.00,0.00,22.3,20.9,00.0,31.1,24.2,11.9,0000.0,0002.35,0001.79,0001.62
2022-10-28 12:47:00,,0832.1,5.00,0.00,22.3,20.9,00.0,31.1,24.1,11.6,0000.0,0002.35,0001.78,0001.61
2022-10-28 12:48:00,,0832.1,5.01,0.00,22.3,20.8,00.0,31.1,24.1,11.6,0000.0,0002.35,0001.78,0001.60
2022-10-28 12:49:00,,0832.1,5.00,0.00,22.3,20.8,00.0,31.1,24.0,11.7,0000.0,0002.33,0001.78,0001.60
2022-10-28 12:50:00,,0832.1,5.00,0.00,22.2,20.8,00.0,31.1,24.0,11.7,0000.0,0002.16,0001.75,0001.59
2022-10-28 12:51:00,,0832.1,5.00,0.00,22.2,20.7,00.0,31.1,24.0,11.6,0000.0,0002.06,0001.73,0001.59
2022-10-28 12:52:00,,0832.1,4.98,0.00,22.2,20.7,00.0,31.1,24.0,11.6,0000.0,0001.94,0001.67,0001.57
2022-10-28 12:53:00,,0832.1,5.02,0.00,22.2,20.7,00.0,31.1,24.0,11.7,0000.0,0001.84,0001.62,0001.55
2022-10-28 12:54:00,,0832.1,5.00,0.00,22.2,20.7,00.0,31.1,24.0,11.8,0000.0,0001.91,0001.63,0001.53
2022-10-28 12:55:00,,0832.1,5.00,0.00,22.2,20.6,00.0,31.1,23.9,11.7,0000.0,0001.92,0001.60,0001.51
2022-10-28 12:56:00,,0832.1,5.01,0.00,22.2,20.6,00.0,31.1,23.9,11.6,0000.0,0001.87,0001.57,0001.49
2022-10-28 12:57:00,,0832.1,4.97,0.00,22.2,20.6,00.0,31.1,24.0,11.6,0000.0,0001.88,0001.56,0001.48
2022-10-28 12:58:00,,0832.0,5.00,0.00,22.2,20.6,00.0,31.0,23.9,11.5,0000.0,0001.83,0001.53,0001.45
2022-10-28 12:59:00,,0832.1,5.00,0.00,22.1,20.6,00.0,31.0,23.9,11.7,0000.0,0001.80,0001.51,0001.43
